N3WR Weather Reports


time (UTC)temp
C
wind
direction
speed
KPH
gust
KPH
rain 1hr
cm
rain 24hr
cm
rain mn
cm
humidity
%
barometer
mb
20260504214458 21 202 12.9 24.1 0.00 0.00 0.00 45 1008.0
20260504212959 21 222 9.7 17.7 0.00 0.00 0.00 46 1008.2
20260504211459 21 194 8.0 14.5 0.00 0.00 0.00 46 1008.2
20260504210003 21 173 11.3 24.1 0.00 0.00 0.00 45 1008.2
20260504204458 21 216 11.3 24.1 0.00 0.00 0.00 43 1008.3
20260504203001 21 169 11.3 25.7 0.00 0.00 0.00 44 1008.6
20260504201459 21 208 12.9 24.1 0.00 0.00 0.00 44 1008.6
20260504200000 21 193 12.9 27.4 0.00 0.00 0.00 44 1008.8
20260504194459 21 202 11.3 24.1 0.00 0.00 0.00 45 1008.9
20260504193000 21 147 12.9 30.6 0.00 0.00 0.00 46 1009.3
20260504191459 21 192 11.3 22.5 0.00 0.00 0.00 44 1009.3
20260504190000 20 218 12.9 27.4 0.00 0.00 0.00 47 1009.4
20260504184459 20 194 12.9 30.6 0.00 0.00 0.00 46 1009.6
20260504182958 20 207 12.9 32.2 0.00 0.00 0.00 46 1009.8
20260504181459 20 240 12.9 27.4 0.00 0.00 0.00 48 1009.9
20260504180000 20 193 12.9 29.0 0.00 0.00 0.00 48 1010.1
20260504174459 20 203 11.3 25.7 0.00 0.00 0.00 47 1010.1
20260504173003 19 292 11.3 24.1 0.00 0.00 0.00 49 1010.3
20260504171500 19 224 9.7 19.3 0.00 0.00 0.00 49 1010.8
20260504081458 7 247 3.2 8.0 0.00 0.00 0.00 65 1013.3
20260504050007 7 238 3.2 6.4 0.00 0.00 0.00 63 1013.0
20260504044503 8 250 3.2 6.4 0.00 0.00 0.00 62 1013.1
20260504043013 8 244 3.2 8.0 0.00 0.00 0.00 60 1013.2
20260504041510 8 220 3.2 6.4 0.00 0.00 0.00 60 1013.2
20260504040004 8 202 3.2 4.8 0.00 0.00 0.00 59 1012.7
20260504034505 8 194 3.2 6.4 0.00 0.00 0.00 58 1012.6
20260504033001 9 201 4.8 8.0 0.00 0.00 0.00 58 1012.5
20260504031501 9 193 4.8 6.4 0.00 0.00 0.00 57 1012.4
20260504030006 10 208 4.8 6.4 0.00 0.00 0.00 55 1012.5
20260504024502 10 200 4.8 8.0 0.00 0.00 0.00 56 1012.5
20260504023008 10 186 4.8 8.0 0.00 0.00 0.00 55 1012.5
20260504021504 10 199 4.8 8.0 0.00 0.00 0.00 54 1012.6
20260504020005 10 201 3.2 6.4 0.00 0.00 0.00 54 1012.6
20260504014459 10 200 3.2 6.4 0.00 0.00 0.00 53 1012.6
20260504013000 10 219 3.2 4.8 0.00 0.00 0.00 55 1012.6
20260504011500 10 252 3.2 6.4 0.00 0.00 0.00 53 1012.2
20260504010001 10 248 3.2 8.0 0.00 0.00 0.00 52 1012.1
20260504004459 11 236 3.2 6.4 0.00 0.00 0.00 51 1011.9
20260504003003 11 239 3.2 6.4 0.00 0.00 0.00 51 1011.6
20260504001500 12 243 3.2 8.0 0.00 0.00 0.00 49 1011.4
20260504000005 12 254 4.8 9.7 0.00 0.00 0.00 47 1011.3
20260503234502 13 266 4.8 11.3 0.00 0.00 0.00 46 1011.3
20260503233000 13 309 4.8 14.5 0.00 0.00 0.00 44 1011.0
20260503231500 14 244 9.7 22.5 0.00 0.00 0.00 41 1011.0
20260503230006 15 287 9.7 17.7 0.00 0.00 0.00 40 1011.0
20260503224500 15 283 8.0 16.1 0.00 0.00 0.00 41 1011.0
20260503222959 15 257 8.0 16.1 0.00 0.00 0.00 43 1011.0
20260503221459 15 271 9.7 19.3 0.00 0.00 0.00 40 1011.0
20260503220003 15 279 8.0 19.3 0.00 0.00 0.00 43 1011.1